EW9532 Weather Reports


time (UTC)temp
C
wind
direction
speed
KPH
gust
KPH
rain 1hr
cm
rain 24hr
cm
rain mn
cm
humidity
%
barometer
mb
20260904112329 27 270 0.0 6.4 0.00 0.00 0.00 85 1012.6
20260904111829 27 247 1.6 6.4 0.00 0.00 0.00 85 1012.5
20260904111603 27 323 1.6 8.0 0.00 0.00 0.00 85 1012.8
20260904111329 27 334 1.6 9.7 0.00 0.00 0.00 85 1012.6
20260904110829 27 206 3.2 9.7 0.00 0.00 0.00 85 1012.6
20260904110552 27 148 3.2 9.7 0.00 0.00 0.00 85 1012.6
20260904110104 27 149 1.6 11.3 0.00 0.00 0.00 84 1012.8
20260904105829 28 240 1.6 9.7 0.00 0.00 0.00 85 1012.6
20260904105328 28 132 3.2 11.3 0.00 0.00 0.00 84 1012.6
20260904105320 28 64 3.2 11.3 0.00 0.00 0.00 84 1012.6
20260904104556 27 203 1.6 6.4 0.00 0.00 0.00 84 1012.9
20260904104329 28 128 3.2 8.0 0.00 0.00 0.00 84 1012.8
20260904103828 28 226 1.6 16.1 0.00 0.00 0.00 84 1012.8
20260904103329 28 253 3.2 8.0 0.00 0.00 0.00 84 1012.5
20260904103131 27 323 3.2 11.3 0.00 0.00 0.00 83 1012.7
20260904103055 27 323 3.2 11.3 0.00 0.00 0.00 83 1012.7
20260904102829 28 122 1.6 11.3 0.00 0.00 0.00 84 1012.5
20260904102328 28 166 3.2 12.9 0.00 0.00 0.00 84 1012.4
20260904101830 28 264 4.8 12.9 0.00 0.00 0.00 83 1012.4
20260904101605 27 82 3.2 14.5 0.00 0.00 0.00 83 1012.6
20260904101330 28 87 3.2 12.9 0.00 0.00 0.00 83 1012.4
20260904100830 28 274 4.8 12.9 0.00 0.00 0.00 83 1012.6
20260904100330 28 321 3.2 11.3 0.00 0.00 0.00 83 1012.5
20260904095830 28 307 4.8 11.3 0.00 0.00 0.00 83 1012.5
20260904095329 28 246 3.2 11.3 0.00 0.00 0.00 83 1012.5
20260904094829 28 236 3.2 11.3 0.00 0.00 0.00 83 1012.6
20260904094556 28 295 1.6 9.7 0.00 0.00 0.00 83 1012.8
20260904094552 28 74 3.2 9.7 0.00 0.00 0.00 83 1012.6
20260904093829 28 290 3.2 9.7 0.00 0.00 0.00 83 1012.6
20260904093329 28 72 4.8 8.0 0.00 0.00 0.00 83 1012.6
20260904093054 28 88 1.6 6.4 0.00 0.00 0.00 83 1012.8
20260904092829 28 167 1.6 6.4 0.00 0.00 0.00 83 1012.6
20260904092554 28 291 3.2 11.3 0.00 0.00 0.00 83 1012.6
20260904092050 28 64 3.2 11.3 0.00 0.00 0.00 83 1012.7
20260904091601 28 198 1.6 9.7 0.00 0.00 0.00 82 1012.8
20260904091329 28 92 1.6 9.7 0.00 0.00 0.00 83 1012.6
20260904090828 28 241 3.2 9.7 0.00 0.00 0.00 83 1012.6
20260904090329 28 42 3.2 6.4 0.00 0.00 0.00 83 1012.6
20260904090131 28 194 3.2 6.4 0.00 0.00 0.00 83 1012.7
20260904090059 28 275 1.6 6.4 0.00 0.00 0.00 82 1012.7
20260904085329 28 1 0.0 8.0 0.00 0.00 0.00 83 1012.6
20260904084829 28 205 1.6 8.0 0.00 0.00 0.00 82 1012.7
20260904084558 28 110 1.6 9.7 0.00 0.00 0.00 82 1012.9
20260904084329 28 321 3.2 11.3 0.00 0.00 0.00 82 1012.8
20260904084052 28 141 3.2 11.3 0.00 0.00 0.00 82 1012.8
20260904083817 28 330 3.2 9.7 0.00 0.00 0.00 82 1012.8
20260904083524 28 356 0.0 11.3 0.00 0.00 0.00 82 1012.9
20260904083105 28 0 3.2 9.7 0.00 0.00 0.00 82 1013.1
20260904082328 28 231 1.6 9.7 0.00 0.00 0.00 82 1012.9
20260904081831 28 1 3.2 14.5 0.00 0.00 0.00 82 1012.9
20260904081605 28 115 1.6 12.9 0.00 0.00 0.00 82 1013.1
20260904081331 28 264 4.8 14.5 0.00 0.00 0.00 82 1012.9
20260904080831 28 158 3.2 9.7 0.00 0.00 0.00 82 1013.0
20260904080330 28 355 1.6 9.7 0.00 0.00 0.00 82 1013.1
20260904080110 28 180 4.8 11.3 0.00 0.00 0.00 82 1013.0
20260904080106 28 118 4.8 12.9 0.00 0.00 0.00 82 1013.2
20260904075328 28 218 4.8 12.9 0.00 0.00 0.00 82 1013.0
20260904074830 28 89 6.4 12.9 0.00 0.00 0.00 82 1013.0
20260904074557 28 6 3.2 12.9 0.00 0.00 0.00 82 1013.3
20260904074329 28 281 3.2 9.7 0.00 0.00 0.00 82 1013.0
20260904073829 28 274 3.2 12.9 0.00 0.00 0.00 82 1013.1
20260904073328 28 75 4.8 12.9 0.00 0.00 0.00 82 1013.1
20260904073107 28 20 4.8 14.5 0.00 0.00 0.00 81 1013.4
20260904072829 28 75 4.8 12.9 0.00 0.00 0.00 82 1013.0
20260904072324 29 72 4.8 11.3 0.00 0.00 0.00 82 1013.2
20260904071821 29 151 6.4 11.3 0.00 0.00 0.00 81 1013.2
20260904071626 28 150 3.2 11.3 0.00 0.00 0.00 81 1013.5
20260904071321 29 304 3.2 12.9 0.00 0.00 0.00 81 1013.3
20260904070815 29 290 6.4 12.9 0.00 0.00 0.00 81 1013.4
20260904070549 29 133 3.2 11.3 0.00 0.00 0.00 81 1013.5
20260904070100 28 125 1.6 14.5 0.00 0.00 0.00 81 1013.6
20260904070039 29 105 3.2 11.3 0.00 0.00 0.00 81 1013.4
20260904065307 29 205 4.8 11.3 0.00 0.00 0.00 81 1013.6
20260904064803 29 56 3.2 16.1 0.00 0.00 0.00 81 1013.5
20260904064607 28 283 4.8 17.7 0.00 0.00 0.00 81 1013.7
20260904064303 29 341 8.0 16.1 0.00 0.00 0.00 81 1013.5
20260904063805 29 306 6.4 14.5 0.00 0.00 0.00 81 1013.4
20260904063302 29 341 4.8 17.7 0.00 0.00 0.00 82 1013.3
20260904063107 28 20 4.8 22.5 0.00 0.00 0.00 81 1013.6
20260904062800 29 259 6.4 17.7 0.00 0.00 0.00 82 1013.3
20260904062535 29 98 3.2 11.3 0.00 0.00 0.00 82 1013.3
20260904061801 29 193 4.8 19.3 0.00 0.00 0.00 82 1013.3
20260904061754 29 333 6.4 19.3 0.00 0.00 0.00 82 1013.3
20260904061601 28 132 3.2 17.7 0.00 0.00 0.00 82 1013.4
20260904060801 29 190 6.4 14.5 0.00 0.00 0.00 82 1013.3
20260904060301 29 214 3.2 14.5 0.00 0.00 0.00 82 1013.2
20260904060121 28 245 4.8 12.9 0.00 0.00 0.00 81 1013.5
20260904055801 29 24 4.8 11.3 0.00 0.00 0.00 81 1013.4
20260904055301 29 51 4.8 11.3 0.00 0.00 0.00 81 1013.2
20260904055034 29 205 3.2 9.7 0.00 0.00 0.00 81 1013.3
20260904054604 29 181 3.2 14.5 0.00 0.00 0.00 81 1013.6
20260904054246 29 357 3.2 9.7 0.00 0.00 0.00 81 1013.3
20260904053745 29 285 3.2 12.9 0.00 0.00 0.00 81 1013.6
20260904053240 29 63 3.2 16.1 0.00 0.00 0.00 81 1013.5
20260904053055 29 335 4.8 14.5 0.00 0.00 0.00 80 1013.6
20260904052734 29 263 6.4 16.1 0.00 0.00 0.00 80 1013.6
20260904052231 29 221 3.2 12.9 0.00 0.00 0.00 80 1013.5
20260904051730 29 228 6.4 22.5 0.00 0.00 0.00 80 1013.6
20260904051552 29 101 4.8 20.9 0.00 0.00 0.00 79 1013.6
20260904051231 29 302 6.4 22.5 0.00 0.00 0.00 80 1013.5
20260904050719 29 330 8.0 14.5 0.00 0.00 0.00 80 1013.6
20260904050212 29 288 4.8 12.9 0.00 0.00 0.00 80 1013.8
20260904050058 29 98 3.2 11.3 0.00 0.00 0.00 79 1013.9
20260904045711 29 25 4.8 14.5 0.00 0.00 0.00 80 1013.8
20260904045207 30 252 3.2 14.5 0.00 0.00 0.00 80 1013.7
20260904044703 30 30 3.2 11.3 0.00 0.00 0.00 80 1013.7
20260904044601 29 186 3.2 12.9 0.00 0.00 0.00 79 1013.9
20260904044205 30 137 3.2 11.3 0.00 0.00 0.00 80 1013.7
20260904043702 30 320 6.4 12.9 0.00 0.00 0.00 79 1013.6
20260904043203 30 79 4.8 14.5 0.00 0.00 0.00 79 1013.6
20260904043112 29 333 4.8 12.9 0.00 0.00 0.00 79 1013.8
20260904042702 30 304 4.8 19.3 0.00 0.00 0.00 79 1013.5
20260904042203 30 179 6.4 19.3 0.00 0.00 0.00 79 1013.6
20260904041702 30 275 8.0 14.5 0.00 0.00 0.00 79 1013.5
20260904041601 29 309 4.8 12.9 0.00 0.00 0.00 78 1013.7
20260904041215 30 207 4.8 14.5 0.00 0.00 0.00 78 1013.4
20260904040708 30 18 6.4 14.5 0.00 0.00 0.00 78 1013.4
20260904040210 30 253 8.0 17.7 0.00 0.00 0.00 78 1013.4
20260904040054 30 330 6.4 19.3 0.00 0.00 0.00 77 1013.6
20260904035925 30 304 4.8 17.7 0.00 0.00 0.00 78 1013.4
20260904035157 30 196 6.4 17.7 0.00 0.00 0.00 77 1013.4
20260904034906 30 295 8.0 22.5 0.00 0.00 0.00 77 1013.3
20260904034853 30 356 6.4 17.7 0.00 0.00 0.00 77 1013.3
20260904034552 30 88 6.4 20.9 0.00 0.00 0.00 77 1013.5
20260904033644 30 315 6.4 19.3 0.00 0.00 0.00 77 1013.2
20260904033140 30 289 6.4 14.5 0.00 0.00 0.00 77 1013.1
20260904033102 30 186 4.8 17.7 0.00 0.00 0.00 76 1013.4
20260904032636 30 307 6.4 14.5 0.00 0.00 0.00 76 1013.0
20260904032132 30 49 6.4 14.5 0.00 0.00 0.00 76 1013.0
20260904031634 30 193 8.0 17.7 0.00 0.00 0.00 76 1013.0
20260904031556 30 306 8.0 17.7 0.00 0.00 0.00 75 1013.2
20260904031131 30 257 9.7 17.7 0.00 0.00 0.00 75 1012.8
20260904030630 30 40 8.0 14.5 0.00 0.00 0.00 75 1012.8
20260904030349 30 226 8.0 14.5 0.00 0.00 0.00 75 1012.7
20260904030103 30 116 6.4 17.7 0.00 0.00 0.00 75 1013.0
20260904025630 30 17 6.4 17.7 0.00 0.00 0.00 75 1012.6
20260904025130 30 197 9.7 17.7 0.00 0.00 0.00 75 1012.6
20260904024851 30 153 4.8 17.7 0.00 0.00 0.00 74 1012.5
20260904024608 30 184 4.8 17.7 0.00 0.00 0.00 74 1012.7
20260904024131 30 124 6.4 20.9 0.00 0.00 0.00 74 1012.5
20260904023630 30 137 6.4 20.9 0.00 0.00 0.00 74 1012.4
20260904023350 30 118 8.0 16.1 0.00 0.00 0.00 73 1012.5
20260904023114 30 314 6.4 16.1 0.00 0.00 0.00 73 1012.7
20260904022630 30 101 8.0 16.1 0.00 0.00 0.00 73 1012.5
20260904022143 31 205 8.0 16.1 0.00 0.00 0.00 72 1012.4
20260904021630 31 262 8.0 16.1 0.00 0.00 0.00 72 1012.3
20260904021557 30 269 8.0 17.7 0.00 0.00 0.00 71 1012.5
20260904021353 31 278 6.4 17.7 0.00 0.00 0.00 71 1012.2
20260904020630 31 174 8.0 17.7 0.00 0.00 0.00 71 1012.0
20260904020131 31 130 6.4 19.3 0.00 0.00 0.00 71 1012.2
20260904015630 31 71 8.0 19.3 0.00 0.00 0.00 71 1012.0
20260904015129 31 51 6.4 14.5 0.00 0.00 0.00 71 1011.9
20260904014628 31 74 6.4 17.7 0.00 0.00 0.00 70 1012.1
20260904014602 31 254 6.4 16.1 0.00 0.00 0.00 70 1012.2
20260904014353 31 118 6.4 17.7 0.00 0.00 0.00 70 1011.9
20260904013629 31 297 6.4 14.5 0.00 0.00 0.00 69 1011.7
20260904013129 31 147 4.8 19.3 0.00 0.00 0.00 69 1011.6
20260904013126 31 102 6.4 24.1 0.00 0.00 0.00 68 1011.8
20260904012628 31 281 11.3 19.3 0.00 0.00 0.00 68 1011.4
20260904012129 32 281 4.8 16.1 0.00 0.00 0.00 68 1011.4
20260904011629 32 158 8.0 19.3 0.00 0.00 0.00 67 1011.3
20260904011601 32 177 6.4 19.3 0.00 0.00 0.00 67 1011.6
20260904011129 32 356 8.0 19.3 0.00 0.00 0.00 67 1011.4
20260904010629 32 62 8.0 20.9 0.00 0.00 0.00 66 1011.3
20260904010347 32 233 11.3 25.7 0.00 0.00 0.00 65 1011.1
20260904010101 32 96 11.3 24.1 0.00 0.00 0.00 64 1011.5
20260904005629 32 328 8.0 25.7 0.00 0.00 0.00 64 1011.2
20260904005131 33 212 6.4 22.5 0.00 0.00 0.00 63 1011.1
20260904004629 33 210 11.3 22.5 0.00 0.00 0.00 63 1011.1
20260904004603 32 49 11.3 22.5 0.00 0.00 0.00 62 1011.3
20260904004129 33 225 9.7 17.7 0.00 0.00 0.00 61 1011.0
20260904003630 33 205 8.0 20.9 0.00 0.00 0.00 61 1011.0
20260904003617 33 295 9.7 20.9 0.00 0.00 0.00 60 1011.0
20260904003053 33 169 9.7 20.9 0.00 0.00 0.00 59 1011.3
20260904002628 34 80 6.4 20.9 0.00 0.00 0.00 59 1010.9
20260904002128 34 1 9.7 20.9 0.00 0.00 0.00 58 1010.9
20260904001629 35 307 6.4 19.3 0.00 0.00 0.00 57 1010.8
20260904001610 34 302 6.4 14.5 0.00 0.00 0.00 56 1011.2
20260904001129 35 122 4.8 16.1 0.00 0.00 0.00 56 1010.8
20260904000630 35 257 9.7 20.9 0.00 0.00 0.00 55 1010.8
20260904000129 35 304 9.7 20.9 0.00 0.00 0.00 54 1010.7
20260904000103 35 231 9.7 19.3 0.00 0.00 0.00 53 1011.1
20260903235629 35 326 9.7 19.3 0.00 0.00 0.00 53 1010.7
20260903235336 36 248 6.4 17.7 0.00 0.00 0.00 51 1010.7
20260903235324 35 13 9.7 19.3 0.00 0.00 0.00 52 1010.7
20260903234556 35 354 3.2 19.3 0.00 0.00 0.00 51 1010.9
20260903234129 36 302 9.7 20.9 0.00 0.00 0.00 49 1010.6
20260903233630 36 274 9.7 20.9 0.00 0.00 0.00 49 1010.7
20260903233349 36 286 8.0 19.3 0.00 0.00 0.00 49 1010.5
20260903233106 36 332 6.4 20.9 0.00 0.00 0.00 48 1010.9
20260903232609 36 60 8.0 19.3 0.00 0.00 0.00 50 1010.5
20260903232109 36 173 9.7 19.3 0.00 0.00 0.00 50 1010.4
20260903231609 36 159 9.7 24.1 0.00 0.00 0.00 49 1010.8
20260903231605 36 28 11.3 20.9 0.00 0.00 0.00 50 1010.4
20260903231101 36 283 9.7 25.7 0.00 0.00 0.00 50 1010.3
20260903230601 37 257 8.0 22.5 0.00 0.00 0.00 49 1010.3
20260903230057 37 168 4.8 20.9 0.00 0.00 0.00 49 1010.6
20260903225601 37 170 12.9 20.9 0.00 0.00 0.00 49 1009.9
20260903225101 37 227 6.4 17.7 0.00 0.00 0.00 48 1009.9
20260903224604 37 91 8.0 24.1 0.00 0.00 0.00 47 1010.1
20260903224600 37 167 8.0 20.9 0.00 0.00 0.00 47 1009.9
20260903224101 37 305 9.7 20.9 0.00 0.00 0.00 46 1009.8
20260903223550 38 111 9.7 19.3 0.00 0.00 0.00 45 1009.7
20260903223112 38 283 8.0 22.5 0.00 0.00 0.00 44 1009.9
20260903223045 38 77 8.0 17.7 0.00 0.00 0.00 44 1009.6
20260903222541 38 357 6.4 19.3 0.00 0.00 0.00 43 1009.7
20260903222039 39 304 4.8 19.3 0.00 0.00 0.00 43 1009.7
20260903221555 38 179 6.4 16.1 0.00 0.00 0.00 42 1010.0
20260903221535 39 95 6.4 14.5 0.00 0.00 0.00 42 1009.7
20260903221030 38 240 8.0 20.9 0.00 0.00 0.00 42 1009.7
20260903220529 38 266 6.4 20.9 0.00 0.00 0.00 42 1009.4
20260903220059 38 287 6.4 12.9 0.00 0.00 0.00 41 1009.8
20260903220029 38 335 8.0 14.5 0.00 0.00 0.00 42 1009.5
20260903215529 39 18 4.8 14.5 0.00 0.00 0.00 42 1009.5
20260903215029 39 71 8.0 16.1 0.00 0.00 0.00 41 1009.5
20260903214759 39 62 8.0 16.1 0.00 0.00 0.00 42 1009.4
20260903214553 38 292 4.8 14.5 0.00 0.00 0.00 41 1009.7
20260903214028 38 344 8.0 14.5 0.00 0.00 0.00 42 1009.6
20260903213530 39 242 4.8 16.1 0.00 0.00 0.00 42 1009.5
20260903213143 38 78 6.4 19.3 0.00 0.00 0.00 42 1009.9
20260903213031 39 86 6.4 19.3 0.00 0.00 0.00 42 1009.6
20260903212529 38 343 4.8 19.3 0.00 0.00 0.00 44 1009.6
20260903212029 38 16 4.8 17.7 0.00 0.00 0.00 44 1009.6
20260903211752 38 53 8.0 16.1 0.00 0.00 0.00 44 1009.6
20260903211556 38 25 8.0 17.7 0.00 0.00 0.00 44 1009.9
20260903211028 39 198 8.0 14.5 0.00 0.00 0.00 43 1009.7
20260903210529 38 289 6.4 17.7 0.00 0.00 0.00 44 1009.7
20260903210058 40 238 6.4 19.3 0.00 0.00 0.00 42 1010.1
20260903210029 40 287 9.7 17.7 0.00 0.00 0.00 42 1009.8
20260903205530 40 281 4.8 14.5 0.00 0.00 0.00 43 1009.8
20260903205029 39 307 6.4 14.5 0.00 0.00 0.00 45 1009.9
20260903204553 39 87 6.4 14.5 0.00 0.00 0.00 45 1010.2
20260903204529 39 215 6.4 14.5 0.00 0.00 0.00 46 1009.9
20260903204253 39 44 6.4 16.1 0.00 0.00 0.00 45 1010.1
20260903203756 39 335 6.4 16.1 0.00 0.00 0.00 46 1009.9
20260903203059 39 157 4.8 14.5 0.00 0.00 0.00 44 1010.3
20260903203043 40 346 6.4 14.5 0.00 0.00 0.00 44 1010.0
20260903202534 40 150 4.8 14.5 0.00 0.00 0.00 45 1010.1
20260903202042 40 213 6.4 12.9 0.00 0.00 0.00 46 1010.0
20260903201606 39 297 4.8 12.9 0.00 0.00 0.00 45 1010.5
20260903201543 39 72 6.4 14.5 0.00 0.00 0.00 45 1010.2
20260903201259 39 3 6.4 14.5 0.00 0.00 0.00 46 1010.2
20260903200526 39 321 4.8 11.3 0.00 0.00 0.00 47 1010.4
20260903200243 39 219 4.8 11.3 0.00 0.00 0.00 45 1010.3
20260903200056 39 169 4.8 11.3 0.00 0.00 0.00 45 1010.6
20260903195522 40 226 4.8 12.9 0.00 0.00 0.00 44 1010.4
20260903195016 40 236 4.8 12.9 0.00 0.00 0.00 44 1010.5
20260903194626 39 333 3.2 12.9 0.00 0.00 0.00 44 1010.9
20260903194517 40 58 3.2 12.9 0.00 0.00 0.00 43 1010.5
20260903194227 40 161 6.4 11.3 0.00 0.00 0.00 43 1010.6
20260903193509 39 11 3.2 11.3 0.00 0.00 0.00 44 1010.8
20260903193101 38 328 6.4 12.9 0.00 0.00 0.00 43 1011.1
20260903193008 39 356 6.4 11.3 0.00 0.00 0.00 44 1010.9
20260903192508 39 63 6.4 11.3 0.00 0.00 0.00 44 1010.8
20260903192006 39 270 6.4 12.9 0.00 0.00 0.00 44 1011.0
20260903191554 39 185 1.6 14.5 0.00 0.00 0.00 45 1011.3
20260903191506 39 208 3.2 14.5 0.00 0.00 0.00 45 1011.1
20260903191000 39 143 3.2 14.5 0.00 0.00 0.00 44 1011.1
20260903190454 39 313 3.2 12.9 0.00 0.00 0.00 45 1011.3
20260903190218 39 26 6.4 12.9 0.00 0.00 0.00 44 1011.3
20260903190054 38 42 6.4 12.9 0.00 0.00 0.00 45 1011.7
20260903185447 39 304 3.2 9.7 0.00 0.00 0.00 46 1011.6
20260903184942 39 245 3.2 8.0 0.00 0.00 0.00 45 1011.7
20260903184557 38 280 3.2 14.5 0.00 0.00 0.00 46 1011.9
20260903184438 38 301 3.2 14.5 0.00 0.00 0.00 47 1011.8
20260903183933 38 293 4.8 17.7 0.00 0.00 0.00 48 1011.8
20260903183432 38 143 9.7 17.7 0.00 0.00 0.00 47 1011.9
20260903183131 37 5 4.8 12.9 0.00 0.00 0.00 47 1012.2
20260903182946 38 349 6.4 14.5 0.00 0.00 0.00 47 1012.0
20260903182431 38 98 3.2 14.5 0.00 0.00 0.00 48 1012.2
20260903181933 38 66 6.4 14.5 0.00 0.00 0.00 48 1012.2
20260903181604 37 281 3.2 14.5 0.00 0.00 0.00 48 1012.5
20260903181431 37 172 3.2 12.9 0.00 0.00 0.00 49 1012.4
20260903180929 37 195 4.8 19.3 0.00 0.00 0.00 49 1012.4
20260903180423 37 259 8.0 19.3 0.00 0.00 0.00 49 1012.6
20260903180109 37 120 4.8 12.9 0.00 0.00 0.00 47 1012.8
20260903175925 37 181 4.8 12.9 0.00 0.00 0.00 49 1012.7
20260903175420 37 20 6.4 16.1 0.00 0.00 0.00 49 1012.7
20260903174915 37 297 6.4 16.1 0.00 0.00 0.00 49 1012.7
20260903174555 37 174 4.8 12.9 0.00 0.00 0.00 49 1013.1
20260903174410 37 297 4.8 14.5 0.00 0.00 0.00 50 1012.9
20260903173904 37 198 4.8 14.5 0.00 0.00 0.00 50 1013.0
20260903173403 37 279 6.4 14.5 0.00 0.00 0.00 51 1012.9
20260903173109 36 96 4.8 16.1 0.00 0.00 0.00 52 1013.3
20260903172902 37 52 4.8 14.5 0.00 0.00 0.00 51 1013.2
20260903172402 36 203 4.8 14.5 0.00 0.00 0.00 52 1013.2
20260903171902 36 221 4.8 12.9 0.00 0.00 0.00 52 1013.2
20260903171602 36 9 6.4 12.9 0.00 0.00 0.00 52 1013.5
20260903171403 36 50 6.4 12.9 0.00 0.00 0.00 52 1013.5
20260903171126 36 334 4.8 12.9 0.00 0.00 0.00 52 1013.6
20260903170403 36 8 6.4 12.9 0.00 0.00 0.00 54 1013.7
20260903170058 35 230 6.4 14.5 0.00 0.00 0.00 53 1013.9
20260903165903 36 205 4.8 16.1 0.00 0.00 0.00 54 1013.6
20260903165402 35 169 6.4 16.1 0.00 0.00 0.00 57 1013.7
20260903164902 35 281 6.4 17.7 0.00 0.00 0.00 56 1013.9
20260903164609 35 51 6.4 17.7 0.00 0.00 0.00 56 1014.1
20260903164402 35 89 4.8 17.7 0.00 0.00 0.00 56 1013.9
20260903163903 35 238 6.4 17.7 0.00 0.00 0.00 56 1014.0
20260903163402 35 115 6.4 17.7 0.00 0.00 0.00 57 1013.9
20260903163137 34 119 6.4 19.3 0.00 0.00 0.00 58 1014.0
20260903162902 35 217 6.4 16.1 0.00 0.00 0.00 59 1014.0
20260903162402 35 257 9.7 16.1 0.00 0.00 0.00 59 1014.0
20260903162124 34 116 4.8 14.5 0.00 0.00 0.00 59 1014.0
20260903161602 34 6 6.4 14.5 0.00 0.00 0.00 59 1014.2
20260903161401 34 295 4.8 14.5 0.00 0.00 0.00 60 1014.0
20260903160901 34 261 4.8 9.7 0.00 0.00 0.00 61 1014.1
20260903160400 33 341 6.4 17.7 0.00 0.00 0.00 62 1014.1
20260903160100 33 58 6.4 19.3 0.00 0.00 0.00 61 1014.2
20260903155902 33 259 8.0 17.7 0.00 0.00 0.00 62 1014.1
20260903155403 33 263 6.4 16.1 0.00 0.00 0.00 64 1013.9
20260903155126 33 205 6.4 17.7 0.00 0.00 0.00 65 1014.0
20260903155111 33 175 6.4 17.7 0.00 0.00 0.00 65 1013.9
20260903154554 32 105 6.4 16.1 0.00 0.00 0.00 64 1014.1
20260903153856 33 123 6.4 16.1 0.00 0.00 0.00 65 1013.9
20260903153355 32 331 3.2 14.5 0.00 0.00 0.00 66 1014.0
20260903153348 32 205 6.4 17.7 0.00 0.00 0.00 68 1014.1
20260903153106 32 174 4.8 16.1 0.00 0.00 0.00 67 1014.2
20260903152346 32 162 6.4 19.3 0.00 0.00 0.00 68 1014.2
20260903151842 31 264 9.7 19.3 0.00 0.00 0.00 70 1014.3
20260903151604 31 55 6.4 16.1 0.00 0.00 0.00 69 1014.4
20260903151343 31 248 6.4 14.5 0.00 0.00 0.00 71 1014.3
20260903150833 31 198 9.7 14.5 0.00 0.00 0.00 72 1014.2
20260903150329 31 168 6.4 12.9 0.00 0.00 0.00 73 1014.3
20260903150139 31 184 6.4 19.3 0.00 0.00 0.00 73 1014.5
20260903150106 31 54 6.4 16.1 0.00 0.00 0.00 74 1014.3
20260903145329 31 224 8.0 16.1 0.00 0.00 0.00 74 1014.3
20260903144829 30 340 6.4 16.1 0.00 0.00 0.00 75 1014.2
20260903144559 30 238 4.8 12.9 0.00 0.00 0.00 75 1014.5
20260903144328 30 273 6.4 12.9 0.00 0.00 0.00 75 1014.2
20260903143829 30 63 6.4 19.3 0.00 0.00 0.00 77 1014.2
20260903143328 30 150 6.4 19.3 0.00 0.00 0.00 77 1014.3
20260903143057 30 226 8.0 19.3 0.00 0.00 0.00 77 1014.5
20260903142831 30 216 6.4 16.1 0.00 0.00 0.00 77 1014.3
20260903142329 30 122 6.4 22.5 0.00 0.00 0.00 79 1014.3
20260903141829 30 11 6.4 22.5 0.00 0.00 0.00 79 1014.2
20260903141606 29 167 4.8 22.5 0.00 0.00 0.00 79 1014.5
20260903141328 30 283 3.2 12.9 0.00 0.00 0.00 80 1014.3
20260903140828 29 200 3.2 12.9 0.00 0.00 0.00 81 1014.5
20260903140328 29 203 3.2 12.9 0.00 0.00 0.00 81 1014.3
20260903140105 29 354 1.6 12.9 0.00 0.00 0.00 81 1014.6
20260903135831 29 252 3.2 12.9 0.00 0.00 0.00 82 1014.4
20260903135600 28 300 3.2 9.7 0.00 0.00 0.00 83 1014.3
20260903134830 28 109 4.8 11.3 0.00 0.00 0.00 83 1014.5
20260903134612 28 22 1.6 12.9 0.00 0.00 0.00 83 1014.5
20260903134556 28 230 3.2 12.9 0.00 0.00 0.00 84 1014.4
20260903133830 28 306 4.8 12.9 0.00 0.00 0.00 84 1014.3
20260903133330 28 101 3.2 8.0 0.00 0.00 0.00 84 1014.3
20260903133101 28 242 3.2 9.7 0.00 0.00 0.00 84 1014.4
20260903132829 28 247 1.6 9.7 0.00 0.00 0.00 85 1014.2
20260903132606 28 159 1.6 9.7 0.00 0.00 0.00 85 1014.3
20260903131829 28 189 3.2 9.7 0.00 0.00 0.00 85 1014.2
20260903131557 27 245 3.2 11.3 0.00 0.00 0.00 85 1014.3
20260903131329 28 150 4.8 9.7 0.00 0.00 0.00 85 1014.1
20260903130828 27 270 3.2 9.7 0.00 0.00 0.00 86 1014.0
20260903130328 27 152 3.2 8.0 0.00 0.00 0.00 86 1014.1
20260903130109 27 80 1.6 6.4 0.00 0.00 0.00 86 1014.4
20260903125830 27 217 1.6 6.4 0.00 0.00 0.00 86 1014.1
20260903125554 27 6 1.6 9.7 0.00 0.00 0.00 86 1014.1
20260903124829 27 341 3.2 9.7 0.00 0.00 0.00 86 1014.1
20260903124610 27 182 0.0 12.9 0.00 0.00 0.00 86 1014.2
20260903124552 27 271 1.6 9.7 0.00 0.00 0.00 86 1014.0
20260903124052 27 245 1.6 6.4 0.00 0.00 0.00 86 1013.9
20260903123329 27 354 1.6 8.0 0.00 0.00 0.00 86 1013.9
20260903123112 27 288 0.0 8.0 0.00 0.00 0.00 86 1014.2
20260903122830 27 122 1.6 8.0 0.00 0.00 0.00 86 1014.0
20260903122330 27 226 3.2 9.7 0.00 0.00 0.00 86 1013.9
20260903121829 27 324 3.2 9.7 0.00 0.00 0.00 86 1013.8
20260903121557 27 304 3.2 9.7 0.00 0.00 0.00 86 1014.1
20260903121329 27 157 3.2 9.7 0.00 0.00 0.00 86 1013.9
20260903120828 27 239 1.6 8.0 0.00 0.00 0.00 86 1014.0
20260903120329 27 65 3.2 8.0 0.00 0.00 0.00 86 1013.9
20260903120117 27 211 1.6 4.8 0.00 0.00 0.00 86 1014.1
20260903120106 27 193 0.0 4.8 0.00 0.00 0.00 86 1014.0
20260903115330 27 246 3.2 8.0 0.00 0.00 0.00 86 1013.9
20260903115054 27 275 3.2 9.7 0.00 0.00 0.00 86 1013.9
20260903114608 27 255 1.6 9.7 0.00 0.00 0.00 86 1014.1
20260903114330 27 316 3.2 9.7 0.00 0.00 0.00 86 1013.8
20260903113839 27 268 3.2 8.0 0.00 0.00 0.00 86 1013.7
20260903113328 27 41 4.8 8.0 0.00 0.00 0.00 86 1013.7
20260903113107 27 218 0.0 9.7 0.00 0.00 0.00 85 1013.9
20260903113054 27 107 1.6 9.7 0.00 0.00 0.00 86 1013.7